Flag for Brazil Weather past 2 weeks in Brasilia, Distrito Federal, Brazil

Now
59 °F

Clear.


Feels Like: 60 °F
Forecast: 61 / 75 °F
Wind: 3 mph from South

Location: Brasilia Aeroporto

Current Time: May 23, 2015 at 12:06:17 AM

Latest Report: May 22, 2015 at 11:00 PM


Visibility: 10 mi

Pressure: 30.21 "Hg

Humidity: 94%

Dew point: 57 °F

Location of BrasiliaLocation

Historic Weather in Brasilia — Graph

°F

Brasilia temperature yesterday

Maximum temperature yesterday: 73 °F (at 12:00 PM)
Minimum temperature yesterday: 59 °F (at 5:00 AM)
Average temperature yesterday: 66 °F

Past Weeks' High & Low Weather Summary

 TemperatureHumidityPressure
High79 °F (May 8, 4:00 PM)100% (May 17, 3:00 AM)30.30 "Hg (May 17, 3:00 AM)
Low57 °F (May 12, 4:00 AM)54% (May 8, 11:00 AM)30.04 "Hg (May 10, 5:00 PM)
Average67 °F78%30.17 "Hg
* Reported May 7 11:00 PM — May 22 11:00 PM, Brasilia, Weather by CustomWeather, © 2015

Note: Actual official high and low records may vary slightly from our data, if they occured in-between our weather recording intervals... More about our weather records

Advertising

Brasilia weather history for previous 24 hours

 ConditionsComfort  
Time TempWeatherWind HumidityBarometerVisibility
11:00 PM
Fri, May 22
59 °FClear.3 mph94%30.21 "Hg10 mi
10:00 PM64 °FClear.2 mph78%30.21 "Hg10 mi
9:00 PM64 °FClear.2 mph78%30.21 "Hg10 mi
8:00 PM66 °FClear.8 mph73%30.21 "Hg10 mi
7:00 PM68 °FClear.9 mph69%30.21 "Hg10 mi
6:00 PM70 °FClear.9 mph64%30.21 "Hg10 mi
5:00 PM72 °FScattered clouds.9 mph61%30.18 "HgN/A
4:00 PM73 °FScattered clouds.12 mph57%30.18 "HgN/A
3:00 PM73 °FBroken clouds.15 mph57%30.18 "HgN/A
2:00 PM73 °FPartly sunny.15 mph61%30.21 "HgN/A
1:00 PM73 °FPartly sunny.13 mph61%30.24 "HgN/A
12:00 PM73 °FPartly sunny.15 mph57%30.27 "HgN/A
11:00 AM72 °FPartly sunny.15 mph65%30.27 "HgN/A
10:00 AM66 °FPartly sunny.15 mph73%30.30 "HgN/A
9:00 AM66 °FPassing clouds.16 mph78%30.30 "HgN/A
8:00 AM63 °FPassing clouds.7 mph88%30.27 "HgN/A
7:00 AM61 °FSunny.5 mph94%30.27 "Hg10 mi
6:00 AM59 °FPassing clouds.5 mph88%30.24 "HgN/A
5:00 AM59 °FClear.7 mph88%30.21 "Hg10 mi
4:00 AM61 °FClear.9 mph88%30.21 "Hg10 mi
3:00 AM63 °FClear.8 mph83%30.21 "Hg10 mi
2:00 AM63 °FClear.10 mph83%30.21 "Hg10 mi
1:00 AM64 °FClear.8 mph78%30.24 "Hg10 mi
12:00 AM64 °FClear.5 mph78%30.21 "Hg10 mi
Weather by CustomWeather, © 2015

See weather overviewHow to use our weather pages